owner,sensor,date,latitude,longitude,vertical_datum,sea_water_practical_salinity,qcFlag 
SCCF RECON,ioos:station:SCCF:16:1,2010-05-01T00:00:00Z,26.4345,-81.9647,1.76,32.47,1111122 
SCCF RECON,ioos:station:SCCF:16:1,2010-05-01T01:00:00Z,26.4345,-81.9647,1.739,31.41,1111122 
SCCF RECON,ioos:station:SCCF:16:1,2010-05-01T02:00:00Z,26.4345,-81.9647,1.897,30.76,1111122 
SCCF RECON,ioos:station:SCCF:16:1,2010-05-01T03:00:00Z,26.4345,-81.9647,2.147,32.02,1111122 
SCCF RECON,ioos:station:SCCF:16:1,2010-05-01T04:00:00Z,26.4345,-81.9647,2.357,31.36,1111122 
SCCF RECON,ioos:station:SCCF:16:1,2010-05-01T05:00:00Z,26.4345,-81.9647,2.497,32.02,1111122 
SCCF RECON,ioos:station:SCCF:16:1,2010-05-01T06:00:00Z,26.4345,-81.9647,2.535,32.3,1111122 
SCCF RECON,ioos:station:SCCF:16:1,2010-05-01T07:00:00Z,26.4345,-81.9647,2.559,32.72,1111122 
SCCF RECON,ioos:station:SCCF:16:1,2010-05-01T08:00:00Z,26.4345,-81.9647,2.574,32.81,1111122 
SCCF RECON,ioos:station:SCCF:16:1,2010-05-01T09:00:00Z,26.4345,-81.9647,2.549,32.64,1111122 
SCCF RECON,ioos:station:SCCF:16:1,2010-05-01T10:00:00Z,26.4345,-81.9647,2.51,32.56,1111122 
SCCF RECON,ioos:station:SCCF:16:1,2010-05-01T11:00:00Z,26.4345,-81.9647,2.481,32.38,1111122 
SCCF RECON,ioos:station:SCCF:16:1,2010-05-01T12:00:00Z,26.4345,-81.9647,2.468,32.39,1111122 
SCCF RECON,ioos:station:SCCF:16:1,2010-05-01T13:00:00Z,26.4345,-81.9647,2.503,32.51,1111122 
SCCF RECON,ioos:station:SCCF:16:1,2010-05-01T14:00:00Z,26.4345,-81.9647,2.595,32.53,1111122 
SCCF RECON,ioos:station:SCCF:16:1,2010-05-01T15:00:00Z,26.4345,-81.9647,2.72,32.67,1111122 
SCCF RECON,ioos:station:SCCF:16:1,2010-05-01T16:00:00Z,26.4345,-81.9647,2.834,32.77,1111122 
SCCF RECON,ioos:station:SCCF:16:1,2010-05-01T17:00:00Z,26.4345,-81.9647,2.854,32.87,1111122 
SCCF RECON,ioos:station:SCCF:16:1,2010-05-01T18:00:00Z,26.4345,-81.9647,2.851,32.98,1111122 
SCCF RECON,ioos:station:SCCF:16:1,2010-05-01T19:00:00Z,26.4345,-81.9647,2.85,33.19,1111122 
SCCF RECON,ioos:station:SCCF:16:1,2010-05-01T20:00:00Z,26.4345,-81.9647,2.756,33.21,1111122 
SCCF RECON,ioos:station:SCCF:16:1,2010-05-01T21:00:00Z,26.4345,-81.9647,2.576,33.2,1111122 
SCCF RECON,ioos:station:SCCF:16:1,2010-05-01T22:00:00Z,26.4345,-81.9647,2.358,33.08,1111122 
SCCF RECON,ioos:station:SCCF:16:1,2010-05-01T23:00:00Z,26.4345,-81.9647,2.143,32.91,1111122 
SCCF RECON,ioos:station:SCCF:16:1,2010-05-02T00:00:00Z,26.4345,-81.9647,1.959,32.63,1111122 
SCCF RECON,ioos:station:SCCF:16:1,2010-05-02T01:00:00Z,26.4345,-81.9647,1.84,32.39,1111122 
SCCF RECON,ioos:station:SCCF:16:1,2010-05-02T02:00:00Z,26.4345,-81.9647,1.83,32.02,1111122 
SCCF RECON,ioos:station:SCCF:16:1,2010-05-02T03:00:00Z,26.4345,-81.9647,1.99,31.76,1111122 
SCCF RECON,ioos:station:SCCF:16:1,2010-05-02T04:00:00Z,26.4345,-81.9647,2.218,32.25,1111122 
SCCF RECON,ioos:station:SCCF:16:1,2010-05-02T05:00:00Z,26.4345,-81.9647,2.346,31.56,1111122 
SCCF RECON,ioos:station:SCCF:16:1,2010-05-02T06:00:00Z,26.4345,-81.9647,2.456,32.07,1111122 
SCCF RECON,ioos:station:SCCF:16:1,2010-05-02T07:00:00Z,26.4345,-81.9647,2.527,32.5,1111122 
SCCF RECON,ioos:station:SCCF:16:1,2010-05-02T08:00:00Z,26.4345,-81.9647,2.534,32.42,1111122 
SCCF RECON,ioos:station:SCCF:16:1,2010-05-02T09:00:00Z,26.4345,-81.9647,2.518,32.38,1111122 
SCCF RECON,ioos:station:SCCF:16:1,2010-05-02T10:00:00Z,26.4345,-81.9647,2.538,32.34,1111122 
SCCF RECON,ioos:station:SCCF:16:1,2010-05-02T11:00:00Z,26.4345,-81.9647,2.531,32.24,1111122 
SCCF RECON,ioos:station:SCCF:16:1,2010-05-02T12:00:00Z,26.4345,-81.9647,2.504,32.66,1111122 
SCCF RECON,ioos:station:SCCF:16:1,2010-05-02T13:00:00Z,26.4345,-81.9647,2.465,32.66,1111122 
SCCF RECON,ioos:station:SCCF:16:1,2010-05-02T14:00:00Z,26.4345,-81.9647,2.524,32.66,1111122 
SCCF RECON,ioos:station:SCCF:16:1,2010-05-02T15:00:00Z,26.4345,-81.9647,2.627,32.79,1111122 
SCCF RECON,ioos:station:SCCF:16:1,2010-05-02T16:00:00Z,26.4345,-81.9647,2.72,33.13,1111122 
SCCF RECON,ioos:station:SCCF:16:1,2010-05-02T17:00:00Z,26.4345,-81.9647,2.823,33.21,1111122 
SCCF RECON,ioos:station:SCCF:16:1,2010-05-02T18:00:00Z,26.4345,-81.9647,2.879,33.27,1111122 
SCCF RECON,ioos:station:SCCF:16:1,2010-05-02T19:00:00Z,26.4345,-81.9647,2.864,33.35,1111122 
SCCF RECON,ioos:station:SCCF:16:1,2010-05-02T20:00:00Z,26.4345,-81.9647,2.835,33.4,1111122 
SCCF RECON,ioos:station:SCCF:16:1,2010-05-02T21:00:00Z,26.4345,-81.9647,2.723,33.4,1111122 
SCCF RECON,ioos:station:SCCF:16:1,2010-05-02T22:00:00Z,26.4345,-81.9647,2.544,33.26,1111122 
SCCF RECON,ioos:station:SCCF:16:1,2010-05-02T23:00:00Z,26.4345,-81.9647,2.336,33.25,1111122 
SCCF RECON,ioos:station:SCCF:16:1,2010-05-03T00:00:00Z,26.4345,-81.9647,2.151,33.13,1111122 
SCCF RECON,ioos:station:SCCF:16:1,2010-05-03T01:00:00Z,26.4345,-81.9647,2.01,32.96,1111122 
SCCF RECON,ioos:station:SCCF:16:1,2010-05-03T02:00:00Z,26.4345,-81.9647,1.921,32.63,1111122 
SCCF RECON,ioos:station:SCCF:16:1,2010-05-03T03:00:00Z,26.4345,-81.9647,1.973,32.18,1111122 
SCCF RECON,ioos:station:SCCF:16:1,2010-05-03T04:00:00Z,26.4345,-81.9647,2.115,31.64,1111122 
SCCF RECON,ioos:station:SCCF:16:1,2010-05-03T05:00:00Z,26.4345,-81.9647,2.233,32.14,1111122 
SCCF RECON,ioos:station:SCCF:16:1,2010-05-03T06:00:00Z,26.4345,-81.9647,2.332,31.73,1111122 
SCCF RECON,ioos:station:SCCF:16:1,2010-05-03T07:00:00Z,26.4345,-81.9647,2.412,31.95,1111122 
SCCF RECON,ioos:station:SCCF:16:1,2010-05-03T08:00:00Z,26.4345,-81.9647,2.475,32.26,1111122 
SCCF RECON,ioos:station:SCCF:16:1,2010-05-03T09:00:00Z,26.4345,-81.9647,2.551,32.48,1111122 
SCCF RECON,ioos:station:SCCF:16:1,2010-05-03T10:00:00Z,26.4345,-81.9647,2.553,32.51,1111122 
SCCF RECON,ioos:station:SCCF:16:1,2010-05-03T11:00:00Z,26.4345,-81.9647,2.504,32.52,1111122 
SCCF RECON,ioos:station:SCCF:16:1,2010-05-03T12:00:00Z,26.4345,-81.9647,2.494,32.7,1111122 
SCCF RECON,ioos:station:SCCF:16:1,2010-05-03T13:00:00Z,26.4345,-81.9647,2.481,32.95,1111122 
SCCF RECON,ioos:station:SCCF:16:1,2010-05-03T14:00:00Z,26.4345,-81.9647,2.482,32.91,1111122 
SCCF RECON,ioos:station:SCCF:16:1,2010-05-03T15:00:00Z,26.4345,-81.9647,2.518,32.86,1111122 
SCCF RECON,ioos:station:SCCF:16:1,2010-05-03T16:00:00Z,26.4345,-81.9647,2.577,32.92,1111122 
SCCF RECON,ioos:station:SCCF:16:1,2010-05-03T17:00:00Z,26.4345,-81.9647,2.658,33.07,1111122 
SCCF RECON,ioos:station:SCCF:16:1,2010-05-03T18:00:00Z,26.4345,-81.9647,2.751,33.19,1111122 
SCCF RECON,ioos:station:SCCF:16:1,2010-05-03T19:00:00Z,26.4345,-81.9647,2.767,33.26,1111122 
SCCF RECON,ioos:station:SCCF:16:1,2010-05-03T20:00:00Z,26.4345,-81.9647,2.737,33.29,1111122 
SCCF RECON,ioos:station:SCCF:16:1,2010-05-03T21:00:00Z,26.4345,-81.9647,2.647,33.33,1111122 
SCCF RECON,ioos:station:SCCF:16:1,2010-05-03T22:00:00Z,26.4345,-81.9647,2.545,33.33,1111122 
SCCF RECON,ioos:station:SCCF:16:1,2010-05-03T23:00:00Z,26.4345,-81.9647,2.425,33.27,1111122 
SCCF RECON,ioos:station:SCCF:16:1,2010-05-04T00:00:00Z,26.4345,-81.9647,2.294,33.2,1111122 
SCCF RECON,ioos:station:SCCF:16:1,2010-05-04T01:00:00Z,26.4345,-81.9647,2.149,32.95,1111122 
SCCF RECON,ioos:station:SCCF:16:1,2010-05-04T02:00:00Z,26.4345,-81.9647,2.026,32.72,1111122 
SCCF RECON,ioos:station:SCCF:16:1,2010-05-04T03:00:00Z,26.4345,-81.9647,1.97,32.53,1111122 
SCCF RECON,ioos:station:SCCF:16:1,2010-05-04T04:00:00Z,26.4345,-81.9647,2.006,32.22,1111122 
SCCF RECON,ioos:station:SCCF:16:1,2010-05-04T05:00:00Z,26.4345,-81.9647,2.115,32.14,1111122 
SCCF RECON,ioos:station:SCCF:16:1,2010-05-04T06:00:00Z,26.4345,-81.9647,2.217,32.51,1111122 
SCCF RECON,ioos:station:SCCF:16:1,2010-05-04T07:00:00Z,26.4345,-81.9647,2.314,32.14,1111122 
SCCF RECON,ioos:station:SCCF:16:1,2010-05-04T08:00:00Z,26.4345,-81.9647,2.4,32.43,1111122 
SCCF RECON,ioos:station:SCCF:16:1,2010-05-04T09:00:00Z,26.4345,-81.9647,2.473,32.37,1111122 
SCCF RECON,ioos:station:SCCF:16:1,2010-05-04T10:00:00Z,26.4345,-81.9647,2.473,32.5,1111122 
SCCF RECON,ioos:station:SCCF:16:1,2010-05-04T11:00:00Z,26.4345,-81.9647,2.494,32.59,1111122 
SCCF RECON,ioos:station:SCCF:16:1,2010-05-04T12:00:00Z,26.4345,-81.9647,2.472,32.58,1111122 
SCCF RECON,ioos:station:SCCF:16:1,2010-05-04T13:00:00Z,26.4345,-81.9647,2.439,32.74,1111122 
SCCF RECON,ioos:station:SCCF:16:1,2010-05-04T14:00:00Z,26.4345,-81.9647,2.415,32.94,1111122 
SCCF RECON,ioos:station:SCCF:16:1,2010-05-04T16:00:00Z,26.4345,-81.9647,2.419,33.0,1111122 
SCCF RECON,ioos:station:SCCF:16:1,2010-05-04T17:00:00Z,26.4345,-81.9647,2.496,32.98,1111122 
SCCF RECON,ioos:station:SCCF:16:1,2010-05-04T18:00:00Z,26.4345,-81.9647,2.531,32.99,1111122 
SCCF RECON,ioos:station:SCCF:16:1,2010-05-04T19:00:00Z,26.4345,-81.9647,2.588,33.03,1111122 
SCCF RECON,ioos:station:SCCF:16:1,2010-05-04T20:00:00Z,26.4345,-81.9647,2.585,33.22,1111122 
SCCF RECON,ioos:station:SCCF:16:1,2010-05-04T21:00:00Z,26.4345,-81.9647,2.576,33.3,1111122 
SCCF RECON,ioos:station:SCCF:16:1,2010-05-04T22:00:00Z,26.4345,-81.9647,2.527,33.35,1111122 
SCCF RECON,ioos:station:SCCF:16:1,2010-05-04T23:00:00Z,26.4345,-81.9647,2.464,33.27,1111122 
SCCF RECON,ioos:station:SCCF:16:1,2010-05-05T00:00:00Z,26.4345,-81.9647,2.375,33.27,1111122 
SCCF RECON,ioos:station:SCCF:16:1,2010-05-05T01:00:00Z,26.4345,-81.9647,2.27,33.21,1111122 
SCCF RECON,ioos:station:SCCF:16:1,2010-05-05T02:00:00Z,26.4345,-81.9647,2.141,32.93,1111122 
SCCF RECON,ioos:station:SCCF:16:1,2010-05-05T03:00:00Z,26.4345,-81.9647,2.047,32.77,1111122 
SCCF RECON,ioos:station:SCCF:16:1,2010-05-05T04:00:00Z,26.4345,-81.9647,1.982,32.48,1111122 
SCCF RECON,ioos:station:SCCF:16:1,2010-05-05T05:00:00Z,26.4345,-81.9647,2.0,32.34,1111122 
SCCF RECON,ioos:station:SCCF:16:1,2010-05-05T06:00:00Z,26.4345,-81.9647,2.107,32.32,1111122 
SCCF RECON,ioos:station:SCCF:16:1,2010-05-05T07:00:00Z,26.4345,-81.9647,2.245,32.35,1111122 
SCCF RECON,ioos:station:SCCF:16:1,2010-05-05T08:00:00Z,26.4345,-81.9647,2.32,32.56,1111122 
SCCF RECON,ioos:station:SCCF:16:1,2010-05-05T09:00:00Z,26.4345,-81.9647,2.365,32.72,1111122 
SCCF RECON,ioos:station:SCCF:16:1,2010-05-05T10:00:00Z,26.4345,-81.9647,2.453,32.89,1111122 
SCCF RECON,ioos:station:SCCF:16:1,2010-05-05T11:00:00Z,26.4345,-81.9647,2.533,33.16,1111122 
SCCF RECON,ioos:station:SCCF:16:1,2010-05-05T12:00:00Z,26.4345,-81.9647,2.553,33.18,1111122 
SCCF RECON,ioos:station:SCCF:16:1,2010-05-05T13:00:00Z,26.4345,-81.9647,2.542,33.25,1111122 
SCCF RECON,ioos:station:SCCF:16:1,2010-05-05T14:00:00Z,26.4345,-81.9647,2.477,33.2,1111122 
SCCF RECON,ioos:station:SCCF:16:1,2010-05-05T15:00:00Z,26.4345,-81.9647,2.442,33.18,1111122 
SCCF RECON,ioos:station:SCCF:16:1,2010-05-05T16:00:00Z,26.4345,-81.9647,2.414,33.18,1111122 
SCCF RECON,ioos:station:SCCF:16:1,2010-05-05T17:00:00Z,26.4345,-81.9647,2.406,33.21,1111122 
SCCF RECON,ioos:station:SCCF:16:1,2010-05-05T18:00:00Z,26.4345,-81.9647,2.395,33.2,1111122 
SCCF RECON,ioos:station:SCCF:16:1,2010-05-05T19:00:00Z,26.4345,-81.9647,2.44,33.13,1111122 
SCCF RECON,ioos:station:SCCF:16:1,2010-05-05T20:00:00Z,26.4345,-81.9647,2.494,33.16,1111122 
SCCF RECON,ioos:station:SCCF:16:1,2010-05-05T21:00:00Z,26.4345,-81.9647,2.527,33.13,1111122 
SCCF RECON,ioos:station:SCCF:16:1,2010-05-05T22:00:00Z,26.4345,-81.9647,2.503,33.05,1111122 
SCCF RECON,ioos:station:SCCF:16:1,2010-05-05T23:00:00Z,26.4345,-81.9647,2.475,33.11,1111122 
SCCF RECON,ioos:station:SCCF:16:1,2010-05-06T00:00:00Z,26.4345,-81.9647,2.408,33.05,1111122 
SCCF RECON,ioos:station:SCCF:16:1,2010-05-06T01:00:00Z,26.4345,-81.9647,2.336,32.92,1111122 
SCCF RECON,ioos:station:SCCF:16:1,2010-05-06T02:00:00Z,26.4345,-81.9647,2.234,33.11,1111122 
SCCF RECON,ioos:station:SCCF:16:1,2010-05-06T03:00:00Z,26.4345,-81.9647,2.153,32.96,1111122 
SCCF RECON,ioos:station:SCCF:16:1,2010-05-06T04:00:00Z,26.4345,-81.9647,2.115,32.42,1111122 
SCCF RECON,ioos:station:SCCF:16:1,2010-05-06T05:00:00Z,26.4345,-81.9647,2.059,31.77,1111122 
SCCF RECON,ioos:station:SCCF:16:1,2010-05-06T06:00:00Z,26.4345,-81.9647,2.048,30.5,1111122 
SCCF RECON,ioos:station:SCCF:16:1,2010-05-06T07:00:00Z,26.4345,-81.9647,2.124,31.73,1111122 
SCCF RECON,ioos:station:SCCF:16:1,2010-05-06T08:00:00Z,26.4345,-81.9647,2.224,32.71,1111122 
SCCF RECON,ioos:station:SCCF:16:1,2010-05-06T09:00:00Z,26.4345,-81.9647,2.319,32.88,1111122 
SCCF RECON,ioos:station:SCCF:16:1,2010-05-06T10:00:00Z,26.4345,-81.9647,2.407,33.18,1111122 
SCCF RECON,ioos:station:SCCF:16:1,2010-05-06T11:00:00Z,26.4345,-81.9647,2.483,33.27,1111122 
SCCF RECON,ioos:station:SCCF:16:1,2010-05-06T12:00:00Z,26.4345,-81.9647,2.526,33.34,1111122 
SCCF RECON,ioos:station:SCCF:16:1,2010-05-06T13:00:00Z,26.4345,-81.9647,2.544,33.42,1111122 
SCCF RECON,ioos:station:SCCF:16:1,2010-05-06T14:00:00Z,26.4345,-81.9647,2.488,33.44,1111122 
SCCF RECON,ioos:station:SCCF:16:1,2010-05-06T15:00:00Z,26.4345,-81.9647,2.439,33.45,1111122 
SCCF RECON,ioos:station:SCCF:16:1,2010-05-06T16:00:00Z,26.4345,-81.9647,2.416,33.43,1111122 
SCCF RECON,ioos:station:SCCF:16:1,2010-05-06T17:00:00Z,26.4345,-81.9647,2.364,33.4,1111122 
SCCF RECON,ioos:station:SCCF:16:1,2010-05-06T18:00:00Z,26.4345,-81.9647,2.326,33.22,1111122 
SCCF RECON,ioos:station:SCCF:16:1,2010-05-06T19:00:00Z,26.4345,-81.9647,2.339,33.11,1111122 
SCCF RECON,ioos:station:SCCF:16:1,2010-05-06T20:00:00Z,26.4345,-81.9647,2.374,32.89,1111122 
SCCF RECON,ioos:station:SCCF:16:1,2010-05-06T21:00:00Z,26.4345,-81.9647,2.447,32.42,1111122 
SCCF RECON,ioos:station:SCCF:16:1,2010-05-06T22:00:00Z,26.4345,-81.9647,2.503,32.1,1111122 
SCCF RECON,ioos:station:SCCF:16:1,2010-05-06T23:00:00Z,26.4345,-81.9647,2.504,32.24,1111122 
SCCF RECON,ioos:station:SCCF:16:1,2010-05-07T00:00:00Z,26.4345,-81.9647,2.504,32.54,1111122 
SCCF RECON,ioos:station:SCCF:16:1,2010-05-07T01:00:00Z,26.4345,-81.9647,2.489,32.58,1111122 
SCCF RECON,ioos:station:SCCF:16:1,2010-05-07T02:00:00Z,26.4345,-81.9647,2.421,32.64,1111122 
SCCF RECON,ioos:station:SCCF:16:1,2010-05-07T03:00:00Z,26.4345,-81.9647,2.329,32.52,1111122 
SCCF RECON,ioos:station:SCCF:16:1,2010-05-07T04:00:00Z,26.4345,-81.9647,2.267,31.87,1111122 
SCCF RECON,ioos:station:SCCF:16:1,2010-05-07T05:00:00Z,26.4345,-81.9647,2.204,32.12,1111122 
SCCF RECON,ioos:station:SCCF:16:1,2010-05-07T06:00:00Z,26.4345,-81.9647,2.138,31.88,1111122 
SCCF RECON,ioos:station:SCCF:16:1,2010-05-07T07:00:00Z,26.4345,-81.9647,2.117,30.64,1111122 
SCCF RECON,ioos:station:SCCF:16:1,2010-05-07T08:00:00Z,26.4345,-81.9647,2.167,31.29,1111122 
SCCF RECON,ioos:station:SCCF:16:1,2010-05-07T09:00:00Z,26.4345,-81.9647,2.286,32.63,1111122 
SCCF RECON,ioos:station:SCCF:16:1,2010-05-07T10:00:00Z,26.4345,-81.9647,2.406,32.09,1111122 
SCCF RECON,ioos:station:SCCF:16:1,2010-05-07T11:00:00Z,26.4345,-81.9647,2.479,33.15,1111122 
SCCF RECON,ioos:station:SCCF:16:1,2010-05-07T12:00:00Z,26.4345,-81.9647,2.566,33.24,1111122 
SCCF RECON,ioos:station:SCCF:16:1,2010-05-07T13:00:00Z,26.4345,-81.9647,2.6,33.31,1111122 
SCCF RECON,ioos:station:SCCF:16:1,2010-05-07T14:00:00Z,26.4345,-81.9647,2.571,33.37,1111122 
SCCF RECON,ioos:station:SCCF:16:1,2010-05-07T15:00:00Z,26.4345,-81.9647,2.51,33.4,1111122 
SCCF RECON,ioos:station:SCCF:16:1,2010-05-07T16:00:00Z,26.4345,-81.9647,2.459,33.4,1111122 
SCCF RECON,ioos:station:SCCF:16:1,2010-05-07T17:00:00Z,26.4345,-81.9647,2.383,33.34,1111122 
SCCF RECON,ioos:station:SCCF:16:1,2010-05-07T18:00:00Z,26.4345,-81.9647,2.327,33.03,1111122 
SCCF RECON,ioos:station:SCCF:16:1,2010-05-07T19:00:00Z,26.4345,-81.9647,2.275,32.83,1111122 
SCCF RECON,ioos:station:SCCF:16:1,2010-05-07T20:00:00Z,26.4345,-81.9647,2.262,31.97,1111122 
SCCF RECON,ioos:station:SCCF:16:1,2010-05-07T21:00:00Z,26.4345,-81.9647,2.317,32.18,1111122 
SCCF RECON,ioos:station:SCCF:16:1,2010-05-07T22:00:00Z,26.4345,-81.9647,2.415,31.01,1111122 
SCCF RECON,ioos:station:SCCF:16:1,2010-05-07T23:00:00Z,26.4345,-81.9647,2.489,31.58,1111122 
SCCF RECON,ioos:station:SCCF:16:1,2010-05-08T00:00:00Z,26.4345,-81.9647,2.525,32.14,1111122 
SCCF RECON,ioos:station:SCCF:16:1,2010-05-08T01:00:00Z,26.4345,-81.9647,2.547,32.48,1111122 
SCCF RECON,ioos:station:SCCF:16:1,2010-05-08T02:00:00Z,26.4345,-81.9647,2.514,32.61,1111122 
SCCF RECON,ioos:station:SCCF:16:1,2010-05-08T03:00:00Z,26.4345,-81.9647,2.461,32.67,1111122 
SCCF RECON,ioos:station:SCCF:16:1,2010-05-08T04:00:00Z,26.4345,-81.9647,2.369,32.52,1111122 
SCCF RECON,ioos:station:SCCF:16:1,2010-05-08T05:00:00Z,26.4345,-81.9647,2.296,32.69,1111122 
SCCF RECON,ioos:station:SCCF:16:1,2010-05-08T06:00:00Z,26.4345,-81.9647,2.229,32.44,1111122 
SCCF RECON,ioos:station:SCCF:16:1,2010-05-08T07:00:00Z,26.4345,-81.9647,2.143,31.58,1111122 
SCCF RECON,ioos:station:SCCF:16:1,2010-05-08T08:00:00Z,26.4345,-81.9647,2.154,29.49,1111122 
SCCF RECON,ioos:station:SCCF:16:1,2010-05-08T09:00:00Z,26.4345,-81.9647,2.23,30.3,1111122 
SCCF RECON,ioos:station:SCCF:16:1,2010-05-08T10:00:00Z,26.4345,-81.9647,2.365,33.06,1111122 
SCCF RECON,ioos:station:SCCF:16:1,2010-05-08T11:00:00Z,26.4345,-81.9647,2.449,32.74,1111122 
SCCF RECON,ioos:station:SCCF:16:1,2010-05-08T12:00:00Z,26.4345,-81.9647,2.516,33.36,1111122 
SCCF RECON,ioos:station:SCCF:16:1,2010-05-08T13:00:00Z,26.4345,-81.9647,2.582,33.55,1111122 
SCCF RECON,ioos:station:SCCF:16:1,2010-05-08T14:00:00Z,26.4345,-81.9647,2.601,33.59,1111122 
SCCF RECON,ioos:station:SCCF:16:1,2010-05-08T15:00:00Z,26.4345,-81.9647,2.573,33.64,1111122 
SCCF RECON,ioos:station:SCCF:16:1,2010-05-08T16:00:00Z,26.4345,-81.9647,2.489,33.65,1111122 
SCCF RECON,ioos:station:SCCF:16:1,2010-05-08T17:00:00Z,26.4345,-81.9647,2.387,33.7,1111122 
SCCF RECON,ioos:station:SCCF:16:1,2010-05-08T18:00:00Z,26.4345,-81.9647,2.269,33.59,1111122 
SCCF RECON,ioos:station:SCCF:16:1,2010-05-08T19:00:00Z,26.4345,-81.9647,2.186,33.41,1111122 
SCCF RECON,ioos:station:SCCF:16:1,2010-05-08T20:00:00Z,26.4345,-81.9647,2.127,29.85,1111122 
SCCF RECON,ioos:station:SCCF:16:1,2010-05-08T21:00:00Z,26.4345,-81.9647,2.142,29.96,1111122 
SCCF RECON,ioos:station:SCCF:16:1,2010-05-08T22:00:00Z,26.4345,-81.9647,2.213,30.61,1111122 
SCCF RECON,ioos:station:SCCF:16:1,2010-05-08T23:00:00Z,26.4345,-81.9647,2.31,31.02,1111122 
SCCF RECON,ioos:station:SCCF:16:1,2010-05-09T00:00:00Z,26.4345,-81.9647,2.401,32.36,1111122 
SCCF RECON,ioos:station:SCCF:16:1,2010-05-09T01:00:00Z,26.4345,-81.9647,2.462,33.1,1111122 
SCCF RECON,ioos:station:SCCF:16:1,2010-05-09T02:00:00Z,26.4345,-81.9647,2.5,33.33,1111122 
SCCF RECON,ioos:station:SCCF:16:1,2010-05-09T03:00:00Z,26.4345,-81.9647,2.535,33.4,1111122 
SCCF RECON,ioos:station:SCCF:16:1,2010-05-09T04:00:00Z,26.4345,-81.9647,2.475,33.49,1111122 
SCCF RECON,ioos:station:SCCF:16:1,2010-05-09T05:00:00Z,26.4345,-81.9647,2.368,33.52,1111122 
SCCF RECON,ioos:station:SCCF:16:1,2010-05-09T06:00:00Z,26.4345,-81.9647,2.267,33.45,1111122 
SCCF RECON,ioos:station:SCCF:16:1,2010-05-09T07:00:00Z,26.4345,-81.9647,2.2,33.26,1111122 
SCCF RECON,ioos:station:SCCF:16:1,2010-05-09T08:00:00Z,26.4345,-81.9647,2.19,33.04,1111122 
SCCF RECON,ioos:station:SCCF:16:1,2010-05-09T09:00:00Z,26.4345,-81.9647,2.233,31.65,1111122 
SCCF RECON,ioos:station:SCCF:16:1,2010-05-09T10:00:00Z,26.4345,-81.9647,2.319,33.33,1111122 
SCCF RECON,ioos:station:SCCF:16:1,2010-05-09T11:00:00Z,26.4345,-81.9647,2.454,33.58,1111122 
SCCF RECON,ioos:station:SCCF:16:1,2010-05-09T12:00:00Z,26.4345,-81.9647,2.537,33.51,1111122 
SCCF RECON,ioos:station:SCCF:16:1,2010-05-09T13:00:00Z,26.4345,-81.9647,2.609,33.71,1111122 
SCCF RECON,ioos:station:SCCF:16:1,2010-05-09T14:00:00Z,26.4345,-81.9647,2.647,33.82,1111122 
SCCF RECON,ioos:station:SCCF:16:1,2010-05-09T15:00:00Z,26.4345,-81.9647,2.627,33.86,1111122 
SCCF RECON,ioos:station:SCCF:16:1,2010-05-09T16:00:00Z,26.4345,-81.9647,2.605,33.89,1111122 
SCCF RECON,ioos:station:SCCF:16:1,2010-05-09T17:00:00Z,26.4345,-81.9647,2.498,33.93,1111122 
SCCF RECON,ioos:station:SCCF:16:1,2010-05-09T18:00:00Z,26.4345,-81.9647,2.375,33.92,1111122 
SCCF RECON,ioos:station:SCCF:16:1,2010-05-09T19:00:00Z,26.4345,-81.9647,2.22,33.48,1111122 
SCCF RECON,ioos:station:SCCF:16:1,2010-05-09T20:00:00Z,26.4345,-81.9647,2.1,31.78,1111122 
SCCF RECON,ioos:station:SCCF:16:1,2010-05-09T21:00:00Z,26.4345,-81.9647,2.08,30.58,1111122 
SCCF RECON,ioos:station:SCCF:16:1,2010-05-09T22:00:00Z,26.4345,-81.9647,2.179,30.81,1111122 
SCCF RECON,ioos:station:SCCF:16:1,2010-05-09T23:00:00Z,26.4345,-81.9647,2.283,31.21,1111122 
SCCF RECON,ioos:station:SCCF:16:1,2010-05-10T00:00:00Z,26.4345,-81.9647,2.41,32.0,1111122 
SCCF RECON,ioos:station:SCCF:16:1,2010-05-10T01:00:00Z,26.4345,-81.9647,2.478,33.02,1111122 
SCCF RECON,ioos:station:SCCF:16:1,2010-05-10T02:00:00Z,26.4345,-81.9647,2.526,33.32,1111122 
SCCF RECON,ioos:station:SCCF:16:1,2010-05-10T03:00:00Z,26.4345,-81.9647,2.578,33.72,1111122 
SCCF RECON,ioos:station:SCCF:16:1,2010-05-10T04:00:00Z,26.4345,-81.9647,2.583,33.94,1111122 
SCCF RECON,ioos:station:SCCF:16:1,2010-05-10T05:00:00Z,26.4345,-81.9647,2.507,33.99,1111122 
SCCF RECON,ioos:station:SCCF:16:1,2010-05-10T06:00:00Z,26.4345,-81.9647,2.393,33.96,1111122 
SCCF RECON,ioos:station:SCCF:16:1,2010-05-10T07:00:00Z,26.4345,-81.9647,2.299,33.22,1111122 
SCCF RECON,ioos:station:SCCF:16:1,2010-05-10T08:00:00Z,26.4345,-81.9647,2.203,33.18,1111122 
SCCF RECON,ioos:station:SCCF:16:1,2010-05-10T09:00:00Z,26.4345,-81.9647,2.182,31.99,1111122 
SCCF RECON,ioos:station:SCCF:16:1,2010-05-10T10:00:00Z,26.4345,-81.9647,2.221,30.52,1111122 
SCCF RECON,ioos:station:SCCF:16:1,2010-05-10T11:00:00Z,26.4345,-81.9647,2.326,32.0,1111122 
SCCF RECON,ioos:station:SCCF:16:1,2010-05-10T12:00:00Z,26.4345,-81.9647,2.475,32.54,1111122 
SCCF RECON,ioos:station:SCCF:16:1,2010-05-10T13:00:00Z,26.4345,-81.9647,2.585,33.12,1111122 
SCCF RECON,ioos:station:SCCF:16:1,2010-05-10T14:00:00Z,26.4345,-81.9647,2.658,33.11,1111122 
SCCF RECON,ioos:station:SCCF:16:1,2010-05-10T15:00:00Z,26.4345,-81.9647,2.691,33.27,1111122 
SCCF RECON,ioos:station:SCCF:16:1,2010-05-10T16:00:00Z,26.4345,-81.9647,2.628,33.26,1111122 
SCCF RECON,ioos:station:SCCF:16:1,2010-05-10T17:00:00Z,26.4345,-81.9647,2.525,33.24,1111122 
SCCF RECON,ioos:station:SCCF:16:1,2010-05-10T18:00:00Z,26.4345,-81.9647,2.381,33.22,1111122 
SCCF RECON,ioos:station:SCCF:16:1,2010-05-10T19:00:00Z,26.4345,-81.9647,2.262,33.3,1111122 
SCCF RECON,ioos:station:SCCF:16:1,2010-05-10T20:00:00Z,26.4345,-81.9647,2.137,33.28,1111122 
SCCF RECON,ioos:station:SCCF:16:1,2010-05-10T21:00:00Z,26.4345,-81.9647,2.075,32.56,1111122 
SCCF RECON,ioos:station:SCCF:16:1,2010-05-10T22:00:00Z,26.4345,-81.9647,2.07,31.55,1111122 
SCCF RECON,ioos:station:SCCF:16:1,2010-05-10T23:00:00Z,26.4345,-81.9647,2.188,30.35,1111122 
SCCF RECON,ioos:station:SCCF:16:1,2010-05-11T00:00:00Z,26.4345,-81.9647,2.323,32.34,1111122 
SCCF RECON,ioos:station:SCCF:16:1,2010-05-11T01:00:00Z,26.4345,-81.9647,2.438,31.4,1111122 
SCCF RECON,ioos:station:SCCF:16:1,2010-05-11T02:00:00Z,26.4345,-81.9647,2.53,32.29,1111122 
SCCF RECON,ioos:station:SCCF:16:1,2010-05-11T03:00:00Z,26.4345,-81.9647,2.627,32.91,1111122 
SCCF RECON,ioos:station:SCCF:16:1,2010-05-11T04:00:00Z,26.4345,-81.9647,2.648,33.15,1111122 
SCCF RECON,ioos:station:SCCF:16:1,2010-05-11T05:00:00Z,26.4345,-81.9647,2.593,33.27,1111122 
SCCF RECON,ioos:station:SCCF:16:1,2010-05-11T06:00:00Z,26.4345,-81.9647,2.515,33.42,1111122 
SCCF RECON,ioos:station:SCCF:16:1,2010-05-11T07:00:00Z,26.4345,-81.9647,2.398,33.42,1111122 
SCCF RECON,ioos:station:SCCF:16:1,2010-05-11T08:00:00Z,26.4345,-81.9647,2.312,33.35,1111122 
SCCF RECON,ioos:station:SCCF:16:1,2010-05-11T09:00:00Z,26.4345,-81.9647,2.264,33.28,1111122 
SCCF RECON,ioos:station:SCCF:16:1,2010-05-11T10:00:00Z,26.4345,-81.9647,2.298,33.24,1111122 
SCCF RECON,ioos:station:SCCF:16:1,2010-05-11T11:00:00Z,26.4345,-81.9647,2.433,33.22,1111122 
SCCF RECON,ioos:station:SCCF:16:1,2010-05-11T12:00:00Z,26.4345,-81.9647,2.641,33.34,1111122 
SCCF RECON,ioos:station:SCCF:16:1,2010-05-11T13:00:00Z,26.4345,-81.9647,2.766,33.54,1111122 
SCCF RECON,ioos:station:SCCF:16:1,2010-05-11T14:00:00Z,26.4345,-81.9647,2.78,33.58,1111122 
SCCF RECON,ioos:station:SCCF:16:1,2010-05-11T15:00:00Z,26.4345,-81.9647,2.811,33.61,1111122 
SCCF RECON,ioos:station:SCCF:16:1,2010-05-11T16:00:00Z,26.4345,-81.9647,2.776,33.6,1111122 
SCCF RECON,ioos:station:SCCF:16:1,2010-05-11T17:00:00Z,26.4345,-81.9647,2.667,33.59,1111122 